TimeMST,TemperatureF,Dew PointF,Humidity,Sea Level PressureIn,VisibilityMPH,Wind Direction,Wind SpeedMPH,Gust SpeedMPH,PrecipitationIn,Events,Conditions,WindDirDegrees,DateUTC
12:53 AM,44.1,14.0,30,30.08,10.0,NE,16.1,-,N/A,,Clear,40,2013-02-15 07:53:00
1:53 AM,44.1,15.1,31,30.07,10.0,NE,13.8,-,N/A,,Clear,40,2013-02-15 08:53:00
2:53 AM,42.1,15.1,34,30.07,10.0,NE,9.2,-,N/A,,Clear,50,2013-02-15 09:53:00
3:53 AM,43.0,16.0,34,30.09,10.0,NNE,5.8,-,N/A,,Clear,30,2013-02-15 10:53:00
4:53 AM,37.0,15.1,41,30.13,10.0,ESE,4.6,-,N/A,,Clear,110,2013-02-15 11:53:00
5:53 AM,39.0,15.1,38,30.16,10.0,NNE,9.2,-,N/A,,Clear,20,2013-02-15 12:53:00
6:53 AM,37.9,19.0,47,30.21,10.0,East,10.4,-,N/A,,Clear,80,2013-02-15 13:53:00
7:53 AM,37.0,19.0,48,30.25,10.0,East,9.2,-,N/A,,Clear,100,2013-02-15 14:53:00
8:53 AM,41.0,21.9,47,30.28,10.0,East,16.1,21.9,N/A,,Clear,80,2013-02-15 15:53:00
9:53 AM,44.1,21.9,42,30.29,10.0,East,10.4,-,N/A,,Clear,90,2013-02-15 16:53:00
10:53 AM,50.0,21.9,33,30.28,10.0,East,12.7,18.4,N/A,,Clear,80,2013-02-15 17:53:00
11:53 AM,52.0,17.1,25,30.24,10.0,ENE,10.4,-,N/A,,Clear,70,2013-02-15 18:53:00
12:53 PM,54.0,16.0,22,30.19,10.0,East,10.4,17.3,N/A,,Clear,100,2013-02-15 19:53:00
1:53 PM,55.9,14.0,19,30.15,10.0,East,5.8,-,N/A,,Clear,80,2013-02-15 20:53:00
2:53 PM,57.0,14.0,18,30.15,10.0,East,3.5,-,N/A,,Clear,100,2013-02-15 21:53:00
3:53 PM,57.0,12.9,18,30.15,10.0,Variable,4.6,-,N/A,,Clear,0,2013-02-15 22:53:00
4:53 PM,55.9,12.9,18,30.18,10.0,Variable,4.6,-,N/A,,Clear,0,2013-02-15 23:53:00
5:53 PM,54.0,12.0,19,30.19,10.0,SSW,4.6,-,N/A,,Clear,200,2013-02-16 00:53:00
6:53 PM,48.0,12.0,24,30.21,10.0,SW,4.6,-,N/A,,Clear,220,2013-02-16 01:53:00
7:53 PM,45.0,12.9,27,30.25,10.0,WSW,4.6,-,N/A,,Clear,240,2013-02-16 02:53:00
8:53 PM,37.0,12.0,36,30.28,10.0,West,4.6,-,N/A,,Clear,260,2013-02-16 03:53:00
9:53 PM,37.9,12.9,36,30.29,10.0,West,4.6,-,N/A,,Clear,270,2013-02-16 04:53:00
10:53 PM,35.1,10.0,35,30.29,10.0,NW,8.1,-,N/A,,Clear,310,2013-02-16 05:53:00
11:53 PM,33.1,10.0,38,30.31,10.0,NNW,6.9,-,N/A,,Clear,330,2013-02-16 06:53:00